Starlink 2095

operational
NORAD ID: 47679 Int'l Des: 2021-012 Owner: SPXS Country: US Constellation: starlink
LEOCIRCULAR

About Starlink 2095

Description loading...

Live Position

Loading 3D Globe...

Upcoming Passes

Altitude History

Altitude vs Time

uPlot chart will show altitude changes over time

Two-Line Element Set

1 47679U 21012BM 25352.37452034 .00076053 00000-0 12813-2 0 9992
2 47679 53.0377 23.9493 0005528 57.4655 302.6886 15.51026976268485
Epoch: Dec 18, 2025 • Age: 35 hours

Current Status

Altitude 428.5 km
Velocity 7.65 km/s
Sub-Earth Point -36.61°S, 157.76°W
Launch Date Feb 16, 2021
Age 4.8 years
Type internet

Technical Details

Classification Payload
Mass 260.00 kg
Dry Mass 248.00 kg
Total Mass 260.00 kg
Length 0.20 m
Diameter 2.80 m
Span 9.00 m
Shape Box + pan
Manufacturer SPXS
Bus Type Starlink
Phase Status In Orbit
Owner/State SPXS/US

Large Constellations

Loading constellations...